Regional Weather Roundup
Issued by NWS Portland, ME

Current Version | Previous Version | Text Only | Print | Product List | Glossary On
Versions: 1 2 3 4 5 6 7 8 9 10 11 12 13 14 15 16 17 18 19 20 21 22 23 24 25 26 27 28 29 30 31 32 33 34 35 36 37 38 39 40 41 42 43 44 45 46 47 48 49 50
000
ASUS41 KGYX 211210
RWRGYX
WEATHER ROUNDUP FOR MAINE AND NEW HAMPSHIRE
NATIONAL WEATHER SERVICE GRAY ME
800 AM EDT TUE APR 21 2015

MEZ002-005-006-010-012-015-018-020-021-024-026-027-029-211300-
MAINE

CITY           SKY/WX    TMP DP  RH WIND       PRES   REMARKS
PORTLAND       CLOUDY    48  46  93 E8        29.60F FOG
6HR MIN TEMP:  47; 6HR MAX TEMP:  49; 6HR PCP:  1.16;

SANFORD        CLOUDY    46  43  87 NE10      29.58F
BAR HARBOR     CLOUDY    45  43  93 SE15G32   29.75F
WISCASSET      LGT RAIN  48  46  93 SE8G18    29.65F FOG
6HR MIN TEMP:  45; 6HR MAX TEMP:  48; 6HR PCP:  0.66;

ROCKLAND       CLOUDY    45  43  93 SE21G28   29.70S THUNDER
FRYEBURG       RAIN      44  43  96 NE7       29.62F
6HR MIN TEMP:  44; 6HR MAX TEMP:  44; 6HR PCP:  0.94;

LEWISTONAUBURN CLOUDY    45  43  93 NE6       29.63F
AUGUSTA        RAIN      45  44  97 NE8       29.66F FOG
6HR MIN TEMP:  43; 6HR MAX TEMP:  45; 6HR PCP:  1.26;

WATERVILLE     CLOUDY    45  41  87 CALM      29.69F
BANGOR         LGT RAIN  44  42  93 SE20G32   29.76F FOG
6HR MIN TEMP:  41; 6HR MAX TEMP:  44; 6HR PCP:  0.23;

GREENVILLE       N/A     38  37  97 E23G32    29.69F
6HR MIN TEMP:  36; 6HR MAX TEMP:  38; 6HR PCP:  0.40;

MILLINOCKET    LGT RAIN  42  39  89 E8        29.84F FOG
6HR MIN TEMP:  40; 6HR MAX TEMP:  42; 6HR PCP:  0.37;

HOULTON        LGT RAIN  38  36  92 SE10G21   29.87F FOG
6HR MIN TEMP:  38; 6HR MAX TEMP:  39; 6HR PCP:  0.07;

PRESQUE ISLE   CLOUDY    37  34  87 SE15G24   29.89F
6HR MIN TEMP:  37; 6HR MAX TEMP:  39; 6HR PCP:  0.15;

FRENCHVILLE    LGT RAIN  36  34  92 SE16      29.86F FOG
6HR MIN TEMP:  34; 6HR MAX TEMP:  36; 6HR PCP:  0.11;

CARIBOU        CLOUDY    38  36  92 SE12      29.88F FOG
6HR MIN TEMP:  36; 6HR MAX TEMP:  38; 6HR PCP:  0.19;

$$

NHZ002-005-008-009-011-012-014-211300-
NEW HAMPSHIRE

CITY           SKY/WX    TMP DP  RH WIND       PRES   REMARKS
PORTSMOUTH     FOG       48  47  97 E6        29.54F VSB 1/16
ROCHESTER      CLOUDY    47  46  97 VRB5      29.56F FOG
6HR MIN TEMP:  46; 6HR MAX TEMP:  47; 6HR PCP:  0.36;

NASHUA         FOG       49  48  96 NW7       29.56S VSB 1
MANCHESTER     CLOUDY    48  46  93 NW3       29.54F FOG
6HR MIN TEMP:  48; 6HR MAX TEMP:  49; 6HR PCP:  0.18;

CONCORD        CLOUDY    47  45  93 N6        29.56S FOG
6HR MIN TEMP:  47; 6HR MAX TEMP:  48; 6HR PCP:  0.31;

LACONIA        CLOUDY    45  41  87 E14       29.55F
PLYMOUTH       DRIZZLE   46  46 100 S3        29.57S
BERLIN         CLOUDY    44  40  85 SE9       29.59F
6HR MIN TEMP:  43; 6HR MAX TEMP:  46; 6HR PCP:  0.15;

WHITEFIELD     LGT RAIN  46  40  79 E15G23    29.55S
6HR MIN TEMP:  45; 6HR MAX TEMP:  52; 6HR PCP:  0.14;

JAFFREY        CLOUDY    46  44  93 CALM      29.55F FOG
6HR MIN TEMP:  44; 6HR MAX TEMP:  46; 6HR PCP:  0.31;

KEENE          CLOUDY    46  45  93 N3        29.56S
LEBANON        CLOUDY    47  44  90 CALM      29.57S FOG
6HR MIN TEMP:  45; 6HR MAX TEMP:  47; 6HR PCP:  0.40;

MT WASHINGTON  LGT RAIN  37  37 100 S41G52      N/A  VSB 1/16
6HR MIN TEMP:  27; 6HR MAX TEMP:  38; 6HR PCP:  0.26;

$$

VTZ005-007-008-211300-
VERMONT

CITY           SKY/WX    TMP DP  RH WIND       PRES   REMARKS
ST JOHNSBURY     N/A     46  44  93 MISG      29.54S
MONTPELIER     LGT RAIN  44  43  96 E5        29.59S FOG
BURLINGTON     CLOUDY    49  46  90 SW8       29.53R
$$

MAZ007-012-024-CTZ003-RIZ002-NYZ038-NYZ072-211300-
SOUTHERN NEW ENGLAND AND NY

CITY           SKY/WX    TMP DP  RH WIND       PRES   REMARKS
BOSTON         CLOUDY    55  55 100 S8        29.54F FOG
WORCESTER      FOG       51  50  96 CALM      29.54F VSB<1/4
NANTUCKET      LGT RAIN  51  50  96 S12       29.62S VSB 1/4
PROVIDENCE     FOG       54  53  97 S9        29.57S VSB 1
HARTFORD       PTSUNNY   52  48  86 NE3       29.55F
ALBANY         CLOUDY    51  48  89 W9        29.58R
NEW YORK CITY  PTSUNNY   58  54  86 SW3       29.60R
$$

ANZ081-ANZ082-ANZ150-NHZ014-MEZ023>029-211300-
COASTAL MARINE OBSERVATIONS

STATION/POSITION TIME  TEMP    WIND        PRES    WAVE
                       AIR SEA DIR/SP/G            HT/PER
                 (UTC) (F)     (DEG/KT/KT) (MB)    (FT/S)
MOUNT DESERT ROC 1200   43     100/ 42/ 49 1005.6F
MATINICUS ROCK   1100   43     120/ 43/ 47 1004.0F
WELLS            1100   46 41   90/  4/  7 1001.4F
ISLE OF SHOALS   1100   46     150/ 22/ 24  999.9R
CASHES LEDGE BUO 1050   45 40              1003.8   14/ 9
$$

.............KEY..............
   WCI - WIND CHILL
   TC  - TEMPERATURE IN CELSIUS
   VSB - VISIBILITY IN MILES
   HX  - HEAT INDEX
   FAIR- INDICATES FEW OR NO CLOUDS BELOW 12,000 FT, WITH NO
         SIGNIFICANT WEATHER AND/OR OBSTRUCTIONS TO VISIBILITY.




USA.gov is the U.S. government's official web portal to all federal, state and local government web resources and services.